This is the latest recevied weather packets stored in our database for station/object K4PAD. If no packets are shown the sender has not sent any weather packets the latest 10 day(s).
| Time | Temp. | Humidity | Pressure | Rain* | Wind** | Luminosity | Snow |
|---|---|---|---|---|---|---|---|
| 1777553756 | 23.33° C | 86% | 1012.6 hPa | 0 mm | - | 157 W/m² | - |
| 1777552545 | 22.78° C | 87% | 1012.4 hPa | 0 mm | - | 136 W/m² | - |
| 1777551334 | 22.22° C | 88% | 1012.4 hPa | 0 mm | - | 110 W/m² | - |
| 1777550423 | 22.22° C | 88% | 1012.4 hPa | 0 mm | - | 36 W/m² | - |
| 1777549816 | 22.22° C | 88% | 1012.1 hPa | 0 mm | - | 49 W/m² | - |
| 1777548298 | 21.67° C | 88% | 1012.5 hPa | 0 mm | - | 19 W/m² | - |
| 1777547995 | 21.67° C | 88% | 1012.5 hPa | 0 mm | - | 20 W/m² | - |
| 1777547388 | 21.67° C | 87% | 1012.1 hPa | 0 mm | - | 14 W/m² | - |
| 1777547086 | 21.67° C | 87% | 1012 hPa | 0 mm | - | 11 W/m² | - |
| 1777546480 | 21.67° C | 87% | 1011.9 hPa | 0 mm | - | 6 W/m² | - |
| 1777545873 | 21.67° C | 86% | 1011.7 hPa | 0 mm | - | 2 W/m² | - |
| 1777545570 | 21.67° C | 86% | 1011.7 hPa | 0 mm | - | 1 W/m² | - |
| 1777545266 | 21.67° C | 86% | 1011.6 hPa | 0 mm | - | 0 W/m² | - |
| 1777544964 | 21.67° C | 86% | 1011.5 hPa | 0 mm | - | 0 W/m² | - |
| 1777544660 | 21.67° C | 85% | 1011.3 hPa | 0 mm | - | 0 W/m² | - |
| 1777544356 | 21.67° C | 85% | 1011.5 hPa | 0 mm | - | 0 W/m² | - |
| 1777544053 | 21.67° C | 85% | 1011.4 hPa | 0 mm | - | 0 W/m² | - |
| 1777543750 | 21.67° C | 84% | 1011.3 hPa | 0 mm | - | 0 W/m² | - |
| 1777543142 | 21.67° C | 84% | 1011.1 hPa | 0 mm | - | 0 W/m² | - |
| 1777542535 | 21.67° C | 84% | 1011.2 hPa | 0 mm | - | 0 W/m² | - |
| 1777541929 | 21.67° C | 83% | 1010.8 hPa | 0 mm | - | 0 W/m² | - |
| 1777541626 | 21.67° C | 83% | 1010.9 hPa | 0 mm | - | 0 W/m² | - |
| 1777541323 | 21.67° C | 82% | 1010.9 hPa | 0 mm | - | 0 W/m² | - |
| 1777540715 | 21.67° C | 82% | 1011.3 hPa | 0 mm | - | 0 W/m² | - |
| 1777540109 | 21.67° C | 81% | 1011.3 hPa | 0 mm | - | 0 W/m² | - |
* Rain latest hour (hover to see other rain measurements)
** Current wind speed in m/s (hover to see current wind gust speed)